AWG107Q EGKK-LROP

Flight info

Callsign AWG107Q
Flight time N/A
Altitude 370
Route ODVIK Y311 DVR UL9 KONAN DCT KOK DCT REMBA DCT SPI DCT GUBAX DCT BARSU DCT MOOCE DCT RUDNO DCT DEXIT DCT TEGRI DCT NEKUL DCT LAMIT DCT TOSVI
Aircraft A20N/M-SDE2E3FGHIRWXY/LB1

Departure

Time N/A
Airport London Gatwick Airport (EGKK)

Arrival

Time 2026-05-05 15:39
Airport Bucharest Henri Coandă International Airport (LROP)
Time Latitude Longitude Altitude Speed Heading
2026-05-05 13:17 51.06092 2.84893 34603 ft 447 kts 109°
2026-05-05 13:18 51.05205 2.89625 34821 ft 447 kts 109°
2026-05-05 13:18 51.04315 2.94376 35037 ft 447 kts 109°
2026-05-05 13:18 51.03437 2.99083 35259 ft 448 kts 109°
2026-05-05 13:18 51.02551 3.03848 35479 ft 448 kts 109°
2026-05-05 13:19 51.01685 3.08526 35685 ft 448 kts 109°
2026-05-05 13:19 51.00789 3.13366 35883 ft 448 kts 109°
2026-05-05 13:19 50.99920 3.18063 36070 ft 449 kts 109°
2026-05-05 13:19 50.99034 3.22846 36253 ft 449 kts 109°
2026-05-05 13:20 50.98144 3.27638 36436 ft 450 kts 109°
2026-05-05 13:20 50.97267 3.32349 36613 ft 450 kts 109°
2026-05-05 13:20 50.96372 3.37145 36800 ft 451 kts 109°
2026-05-05 13:20 50.95480 3.41909 36894 ft 453 kts 109°
2026-05-05 13:21 50.93671 3.51540 36893 ft 453 kts 109°
2026-05-05 13:21 50.91877 3.61059 36896 ft 452 kts 109°
2026-05-05 13:22 50.90064 3.70629 36895 ft 452 kts 110°
2026-05-05 13:22 50.88255 3.80126 36895 ft 451 kts 110°
2026-05-05 13:23 50.86435 3.89634 36892 ft 451 kts 110°
2026-05-05 13:23 50.84611 3.99110 36894 ft 451 kts 110°
2026-05-05 13:24 50.82776 4.08596 36901 ft 451 kts 110°
2026-05-05 13:24 50.80927 4.18105 36904 ft 451 kts 110°
2026-05-05 13:25 50.79079 4.27562 36905 ft 450 kts 110°
2026-05-05 13:25 50.77228 4.36989 36904 ft 450 kts 110°
2026-05-05 13:26 50.75366 4.46425 36909 ft 450 kts 110°
2026-05-05 13:26 50.73506 4.55806 36900 ft 450 kts 111°
2026-05-05 13:27 50.71610 4.65323 36896 ft 450 kts 111°
2026-05-05 13:27 50.69728 4.74724 36893 ft 449 kts 111°
2026-05-05 13:28 50.67852 4.84045 36887 ft 449 kts 111°
2026-05-05 13:28 50.65953 4.93436 36878 ft 449 kts 111°
2026-05-05 13:29 50.64037 5.02814 36881 ft 448 kts 111°
2026-05-05 13:29 50.62120 5.12136 36878 ft 448 kts 111°
2026-05-05 13:30 50.60194 5.21452 36882 ft 448 kts 111°
2026-05-05 13:30 50.58257 5.30782 36886 ft 448 kts 111°
2026-05-05 13:31 50.56318 5.40079 36882 ft 448 kts 111°
2026-05-05 13:31 50.54692 5.47844 36882 ft 448 kts 112°
2026-05-05 13:32 50.52741 5.57121 36875 ft 448 kts 112°
2026-05-05 13:32 50.51179 5.66648 36876 ft 452 kts 104°
2026-05-05 13:33 50.50112 5.76390 36870 ft 453 kts 102°
2026-05-05 13:33 50.49208 5.86205 36859 ft 453 kts 102°
2026-05-05 13:34 50.48351 5.95955 36848 ft 453 kts 102°
2026-05-05 13:34 50.47477 6.05776 36845 ft 453 kts 102°
2026-05-05 13:35 50.46589 6.15546 36840 ft 453 kts 102°
2026-05-05 13:35 50.45682 6.25358 36834 ft 452 kts 102°
2026-05-05 13:36 50.44772 6.35074 36831 ft 452 kts 102°
2026-05-05 13:36 50.43844 6.44881 36839 ft 453 kts 102°
2026-05-05 13:37 50.42908 6.54685 36824 ft 452 kts 103°
2026-05-05 13:37 50.41995 6.64164 36816 ft 452 kts 103°
2026-05-05 13:38 50.41074 6.73645 36820 ft 453 kts 103°
2026-05-05 13:38 50.40176 6.82810 36818 ft 452 kts 103°
2026-05-05 13:39 50.39255 6.92137 36825 ft 452 kts 103°
2026-05-05 13:39 50.38274 7.01969 36823 ft 452 kts 103°
2026-05-05 13:40 50.37296 7.11707 36821 ft 452 kts 103°
2026-05-05 13:40 50.36309 7.21440 36821 ft 452 kts 103°
2026-05-05 13:41 50.35313 7.31168 36823 ft 452 kts 103°
2026-05-05 13:41 50.34319 7.40805 36823 ft 453 kts 103°
2026-05-05 13:42 50.33306 7.50530 36818 ft 453 kts 104°
2026-05-05 13:42 50.32295 7.60165 36820 ft 453 kts 104°
2026-05-05 13:43 50.31267 7.69891 36812 ft 453 kts 104°
2026-05-05 13:43 50.30222 7.79684 36813 ft 453 kts 104°
2026-05-05 13:44 50.29187 7.89304 36815 ft 453 kts 104°
2026-05-05 13:44 50.28014 7.98960 36821 ft 452 kts 106°
2026-05-05 13:45 50.26713 8.08465 36827 ft 452 kts 107°
2026-05-05 13:45 50.25352 8.18107 36829 ft 452 kts 107°
2026-05-05 13:46 50.23989 8.27742 36836 ft 452 kts 107°
2026-05-05 13:46 50.22634 8.37325 36831 ft 452 kts 107°
2026-05-05 13:47 50.21274 8.46930 36831 ft 452 kts 107°
2026-05-05 13:47 50.19905 8.56551 36816 ft 452 kts 107°
2026-05-05 13:48 50.18528 8.66164 36815 ft 452 kts 107°
2026-05-05 13:48 50.17149 8.75717 36832 ft 453 kts 107°
2026-05-05 13:49 50.15763 8.85263 36809 ft 453 kts 107°
2026-05-05 13:49 50.14361 8.94856 36816 ft 453 kts 107°
2026-05-05 13:50 50.12955 9.04416 36809 ft 453 kts 107°
2026-05-05 13:50 50.11540 9.13977 36815 ft 453 kts 108°
2026-05-05 13:51 50.10111 9.23575 36802 ft 453 kts 108°
2026-05-05 13:51 50.08665 9.33221 36802 ft 454 kts 108°
2026-05-05 13:52 50.07222 9.42793 36800 ft 454 kts 108°
2026-05-05 13:52 50.05802 9.52161 36792 ft 454 kts 108°
2026-05-05 13:53 50.04323 9.61860 36797 ft 455 kts 108°
2026-05-05 13:53 50.02863 9.71381 36797 ft 454 kts 108°
2026-05-05 13:54 50.01382 9.80971 36791 ft 454 kts 108°
2026-05-05 13:54 49.99903 9.90495 36791 ft 454 kts 108°
2026-05-05 13:55 49.98407 10.00071 36791 ft 455 kts 108°
2026-05-05 13:55 49.96911 10.09591 36789 ft 455 kts 108°
2026-05-05 13:56 49.95408 10.19106 36787 ft 455 kts 108°
2026-05-05 13:56 49.93886 10.28679 36785 ft 455 kts 108°
2026-05-05 13:57 49.92274 10.38158 36784 ft 453 kts 114°
2026-05-05 13:57 49.89867 10.47159 36778 ft 449 kts 119°
2026-05-05 13:58 49.87228 10.55892 36778 ft 449 kts 120°
2026-05-05 13:58 49.84526 10.64643 36769 ft 450 kts 120°
2026-05-05 13:59 49.80505 10.77746 36773 ft 451 kts 120°
2026-05-05 14:00 49.76928 10.89451 36771 ft 451 kts 120°
2026-05-05 14:00 49.73782 10.99721 36770 ft 452 kts 120°
2026-05-05 14:01 49.71086 11.08488 36763 ft 453 kts 120°
2026-05-05 14:01 49.68366 11.17302 36765 ft 453 kts 120°
2026-05-05 14:02 49.65655 11.26053 36779 ft 454 kts 120°
2026-05-05 14:02 49.62932 11.34805 36760 ft 454 kts 120°
2026-05-05 14:03 49.60167 11.43665 36750 ft 454 kts 120°
2026-05-05 14:03 49.57439 11.52390 36760 ft 454 kts 119°
2026-05-05 14:04 49.55059 11.61497 36752 ft 457 kts 115°
2026-05-05 14:04 49.52882 11.70677 36751 ft 458 kts 114°
2026-05-05 14:05 49.50772 11.79894 36748 ft 459 kts 113°
2026-05-05 14:05 49.48650 11.89197 36752 ft 459 kts 113°
2026-05-05 14:06 49.46519 11.98478 36749 ft 460 kts 114°
2026-05-05 14:06 49.44382 12.07718 36745 ft 460 kts 114°
2026-05-05 14:07 49.42589 12.15433 36750 ft 460 kts 114°
2026-05-05 14:07 49.40064 12.26240 36740 ft 461 kts 114°
2026-05-05 14:08 49.38260 12.33925 36739 ft 461 kts 114°
2026-05-05 14:08 49.36061 12.43260 36737 ft 461 kts 114°
2026-05-05 14:09 49.33774 12.52455 36735 ft 458 kts 119°
2026-05-05 14:09 49.30497 12.60691 36735 ft 452 kts 129°
2026-05-05 14:10 49.26709 12.68412 36730 ft 452 kts 131°
2026-05-05 14:10 49.22876 12.76018 36729 ft 453 kts 131°
2026-05-05 14:11 49.19065 12.83702 36729 ft 454 kts 131°
2026-05-05 14:11 49.15296 12.91407 36734 ft 454 kts 130°
2026-05-05 14:12 49.11510 12.99171 36730 ft 455 kts 130°
2026-05-05 14:12 49.07725 13.06919 36736 ft 455 kts 130°
2026-05-05 14:13 49.03949 13.14626 36736 ft 455 kts 130°
2026-05-05 14:13 49.00162 13.22329 36731 ft 455 kts 130°
2026-05-05 14:14 48.96348 13.30060 36735 ft 456 kts 130°
2026-05-05 14:14 48.92528 13.37782 36734 ft 456 kts 130°
2026-05-05 14:15 48.88717 13.45463 36732 ft 456 kts 130°
2026-05-05 14:15 48.84892 13.53152 36731 ft 456 kts 130°
2026-05-05 14:16 48.81080 13.60793 36735 ft 456 kts 130°
2026-05-05 14:16 48.77269 13.68493 36732 ft 457 kts 127°
2026-05-05 14:17 48.74310 13.77105 36735 ft 462 kts 116°
2026-05-05 14:17 48.71868 13.86068 36735 ft 463 kts 115°
2026-05-05 14:18 48.69400 13.95100 36731 ft 462 kts 116°
2026-05-05 14:18 48.66864 14.03956 36731 ft 462 kts 116°
2026-05-05 14:19 48.64230 14.12893 36735 ft 462 kts 117°
2026-05-05 14:19 48.61599 14.21731 36736 ft 462 kts 117°
2026-05-05 14:20 48.58974 14.30525 36731 ft 462 kts 117°
2026-05-05 14:20 48.56303 14.39453 36733 ft 463 kts 117°
2026-05-05 14:21 48.53646 14.48308 36733 ft 463 kts 117°
2026-05-05 14:21 48.50973 14.57193 36734 ft 463 kts 117°
2026-05-05 14:22 48.48320 14.65980 36731 ft 463 kts 117°
2026-05-05 14:22 48.45632 14.74847 36730 ft 463 kts 117°
2026-05-05 14:23 48.42945 14.83675 36727 ft 463 kts 117°
2026-05-05 14:23 48.40266 14.92450 36726 ft 463 kts 117°
2026-05-05 14:24 48.37568 15.01256 36728 ft 463 kts 117°
2026-05-05 14:24 48.34856 15.10078 36732 ft 463 kts 117°
2026-05-05 14:25 48.32143 15.18870 36726 ft 463 kts 117°
2026-05-05 14:25 48.29418 15.27675 36741 ft 463 kts 117°
2026-05-05 14:26 48.26692 15.36447 36737 ft 463 kts 117°
2026-05-05 14:26 48.23962 15.45202 36734 ft 463 kts 117°
2026-05-05 14:27 48.21235 15.53914 36730 ft 463 kts 117°
2026-05-05 14:27 48.18484 15.62668 36749 ft 463 kts 117°
2026-05-05 14:28 48.15725 15.71426 36746 ft 464 kts 117°
2026-05-05 14:28 48.12974 15.80127 36752 ft 464 kts 117°
2026-05-05 14:29 48.10204 15.88857 36752 ft 464 kts 117°
2026-05-05 14:29 48.07422 15.97594 36757 ft 464 kts 117°
2026-05-05 14:30 48.04621 16.06356 36760 ft 465 kts 118°
2026-05-05 14:30 48.01839 16.15027 36767 ft 465 kts 118°
2026-05-05 14:31 47.99024 16.23773 36778 ft 466 kts 118°
2026-05-05 14:31 47.96212 16.32483 36778 ft 466 kts 118°
2026-05-05 14:32 47.93397 16.41173 36787 ft 467 kts 118°
2026-05-05 14:32 47.90557 16.49904 36794 ft 467 kts 118°
2026-05-05 14:33 47.87721 16.58592 36800 ft 468 kts 118°
2026-05-05 14:33 47.84857 16.67340 36795 ft 468 kts 118°
2026-05-05 14:34 47.82000 16.76035 36811 ft 468 kts 118°
2026-05-05 14:34 47.79129 16.84745 36824 ft 468 kts 118°
2026-05-05 14:35 47.76275 16.93373 36830 ft 468 kts 118°
2026-05-05 14:35 47.73385 17.02083 36837 ft 468 kts 118°
2026-05-05 14:36 47.70496 17.10760 36840 ft 467 kts 118°
2026-05-05 14:36 47.67614 17.19384 36848 ft 468 kts 118°
2026-05-05 14:37 47.64709 17.28054 36859 ft 467 kts 118°
2026-05-05 14:37 47.61804 17.36695 36875 ft 467 kts 118°
2026-05-05 14:38 47.58907 17.45277 36887 ft 467 kts 118°
2026-05-05 14:38 47.55987 17.53907 36881 ft 467 kts 118°
2026-05-05 14:39 47.53086 17.62450 36882 ft 467 kts 118°
2026-05-05 14:39 47.50157 17.71045 36884 ft 467 kts 118°
2026-05-05 14:40 47.47227 17.79612 36883 ft 467 kts 118°
2026-05-05 14:40 47.44286 17.88190 36887 ft 467 kts 118°
2026-05-05 14:41 47.41343 17.96744 36889 ft 467 kts 118°
2026-05-05 14:41 47.38411 18.05239 36895 ft 467 kts 118°
2026-05-05 14:42 47.35947 18.12352 36896 ft 467 kts 118°
2026-05-05 14:42 47.32991 18.20865 36908 ft 466 kts 118°
2026-05-05 14:43 47.30022 18.29386 36908 ft 466 kts 118°
2026-05-05 14:43 47.27054 18.37878 36906 ft 466 kts 118°
2026-05-05 14:44 47.24095 18.46313 36906 ft 465 kts 118°
2026-05-05 14:44 47.21111 18.54792 36907 ft 464 kts 118°
2026-05-05 14:45 47.18132 18.63232 36910 ft 464 kts 118°
2026-05-05 14:45 47.15144 18.71670 36907 ft 463 kts 118°
2026-05-05 14:46 47.12174 18.80030 36908 ft 463 kts 118°
2026-05-05 14:46 47.09178 18.88439 36911 ft 463 kts 118°
2026-05-05 14:47 47.06199 18.96774 36913 ft 463 kts 118°
2026-05-05 14:47 47.03197 19.05146 36912 ft 463 kts 118°
2026-05-05 14:48 47.00207 19.13458 36909 ft 462 kts 118°
2026-05-05 14:48 46.97195 19.21806 36912 ft 462 kts 118°
2026-05-05 14:49 46.94194 19.30097 36916 ft 462 kts 119°
2026-05-05 14:49 46.91170 19.38426 36923 ft 462 kts 119°
2026-05-05 14:50 46.88161 19.46686 36928 ft 462 kts 119°
2026-05-05 14:50 46.85134 19.54969 36932 ft 461 kts 119°
2026-05-05 14:51 46.82105 19.63234 36935 ft 461 kts 119°
2026-05-05 14:51 46.79090 19.71431 36936 ft 461 kts 119°
2026-05-05 14:52 46.76049 19.79673 36933 ft 461 kts 119°
2026-05-05 14:52 46.73002 19.87909 36927 ft 460 kts 119°
2026-05-05 14:53 46.69961 19.96105 36924 ft 461 kts 119°
2026-05-05 14:53 46.66899 20.04332 36921 ft 461 kts 119°
2026-05-05 14:54 46.63847 20.12507 36917 ft 461 kts 119°
2026-05-05 14:54 46.60769 20.20727 36917 ft 461 kts 119°
2026-05-05 14:55 46.57713 20.28862 36920 ft 461 kts 119°
2026-05-05 14:55 46.54622 20.37066 36924 ft 461 kts 119°
2026-05-05 14:56 46.51559 20.45171 36922 ft 461 kts 119°
2026-05-05 14:56 46.48448 20.53376 36924 ft 461 kts 119°
2026-05-05 14:57 46.45341 20.61549 36929 ft 461 kts 119°
2026-05-05 14:57 46.42253 20.69646 36927 ft 461 kts 119°
2026-05-05 14:58 46.39121 20.77834 36928 ft 462 kts 119°
2026-05-05 14:58 46.36013 20.85935 36934 ft 462 kts 119°
2026-05-05 14:59 46.32913 20.94034 36943 ft 462 kts 117°
2026-05-05 14:59 46.30038 21.02367 36952 ft 462 kts 116°
2026-05-05 15:00 46.27686 21.09290 36958 ft 462 kts 116°
2026-05-05 15:00 46.24348 21.18981 36967 ft 462 kts 116°
2026-05-05 15:01 46.21456 21.27299 36958 ft 463 kts 116°
2026-05-05 15:01 46.18554 21.35605 36967 ft 463 kts 116°
2026-05-05 15:02 46.15654 21.43879 36974 ft 463 kts 116°
2026-05-05 15:02 46.12740 21.52162 36961 ft 463 kts 116°
2026-05-05 15:03 46.09813 21.60458 36956 ft 463 kts 116°
2026-05-05 15:03 46.06884 21.68731 36950 ft 463 kts 116°
2026-05-05 15:04 46.03954 21.76982 36947 ft 463 kts 116°
2026-05-05 15:04 46.01022 21.85216 36950 ft 463 kts 116°
2026-05-05 15:05 45.96599 21.97586 36952 ft 463 kts 116°
2026-05-05 15:06 45.93643 22.05823 36955 ft 463 kts 116°
2026-05-05 15:06 45.90698 22.14002 36959 ft 463 kts 116°
2026-05-05 15:07 45.87732 22.22216 36958 ft 463 kts 116°
2026-05-05 15:07 45.84759 22.30424 36964 ft 463 kts 116°
2026-05-05 15:08 45.81776 22.38631 36964 ft 464 kts 116°
2026-05-05 15:08 45.78786 22.46839 36965 ft 464 kts 116°
2026-05-05 15:09 45.75811 22.54976 36962 ft 464 kts 116°
2026-05-05 15:09 45.72802 22.63182 36962 ft 464 kts 116°
2026-05-05 15:10 45.69809 22.71323 36965 ft 464 kts 116°
2026-05-05 15:10 45.66791 22.79503 36965 ft 464 kts 116°
2026-05-05 15:11 45.63771 22.87666 36966 ft 464 kts 116°
2026-05-05 15:11 45.60754 22.95795 36971 ft 465 kts 116°
2026-05-05 15:12 45.57718 23.03952 36972 ft 465 kts 116°
2026-05-05 15:12 45.54674 23.12108 36976 ft 465 kts 116°
2026-05-05 15:13 45.51617 23.20274 36979 ft 465 kts 116°
2026-05-05 15:13 45.48582 23.28356 36988 ft 465 kts 116°
2026-05-05 15:14 45.45519 23.36489 36986 ft 465 kts 116°
2026-05-05 15:14 45.42472 23.44560 36996 ft 465 kts 116°
2026-05-05 15:15 45.39401 23.52666 36994 ft 465 kts 116°
2026-05-05 15:15 45.36296 23.60836 36928 ft 465 kts 116°
2026-05-05 15:15 45.34774 23.64834 36677 ft 464 kts 117°
2026-05-05 15:16 45.33231 23.68881 36416 ft 464 kts 116°
2026-05-05 15:16 45.31690 23.72917 36150 ft 464 kts 116°
2026-05-05 15:16 45.30144 23.76963 35890 ft 464 kts 116°
2026-05-05 15:16 45.28617 23.80953 35643 ft 465 kts 116°
2026-05-05 15:17 45.27066 23.84998 35390 ft 465 kts 116°
2026-05-05 15:17 45.25520 23.89026 35138 ft 465 kts 116°
2026-05-05 15:17 45.23965 23.93071 34892 ft 465 kts 116°
2026-05-05 15:17 45.22415 23.97094 34640 ft 465 kts 116°
2026-05-05 15:18 45.20860 24.01127 34396 ft 466 kts 116°
2026-05-05 15:18 45.19305 24.05153 34167 ft 465 kts 116°
2026-05-05 15:18 45.17766 24.09133 33931 ft 465 kts 116°
2026-05-05 15:18 45.16202 24.13171 33642 ft 466 kts 116°
2026-05-05 15:19 45.14634 24.17215 33365 ft 466 kts 116°
2026-05-05 15:19 45.13072 24.21237 33095 ft 467 kts 116°
2026-05-05 15:19 45.11517 24.25235 32829 ft 468 kts 116°
2026-05-05 15:19 45.09944 24.29273 32563 ft 468 kts 116°
2026-05-05 15:20 45.08367 24.33313 32300 ft 469 kts 116°
2026-05-05 15:20 45.06781 24.37373 32041 ft 470 kts 116°
2026-05-05 15:20 45.05735 24.40046 31870 ft 470 kts 116°
2026-05-05 15:20 45.04148 24.44100 31616 ft 471 kts 116°
2026-05-05 15:21 45.02046 24.49454 31139 ft 468 kts 116°
2026-05-05 15:21 45.00452 24.53510 30310 ft 471 kts 116°
2026-05-05 15:21 44.99396 24.56196 29645 ft 473 kts 116°
2026-05-05 15:21 44.97788 24.60287 28622 ft 476 kts 116°
2026-05-05 15:22 44.96223 24.64426 27719 ft 475 kts 112°
2026-05-05 15:22 44.94992 24.68747 27399 ft 474 kts 105°
2026-05-05 15:22 44.94124 24.73193 27145 ft 472 kts 101°
2026-05-05 15:22 44.93406 24.77715 26892 ft 472 kts 99°
2026-05-05 15:23 44.92736 24.82256 26635 ft 472 kts 99°
2026-05-05 15:23 44.92077 24.86796 26380 ft 472 kts 99°
2026-05-05 15:23 44.91415 24.91342 26133 ft 472 kts 99°
2026-05-05 15:23 44.90760 24.95823 25888 ft 472 kts 99°
2026-05-05 15:24 44.90090 25.00374 25638 ft 472 kts 99°
2026-05-05 15:24 44.89415 25.04936 25390 ft 472 kts 99°
2026-05-05 15:24 44.88740 25.09470 25158 ft 471 kts 99°
2026-05-05 15:24 44.88078 25.13903 24929 ft 469 kts 99°
2026-05-05 15:25 44.87400 25.18425 24681 ft 467 kts 99°
2026-05-05 15:25 44.86729 25.22892 24449 ft 465 kts 99°
2026-05-05 15:25 44.86056 25.27351 24214 ft 463 kts 99°
2026-05-05 15:25 44.85383 25.31796 23981 ft 461 kts 99°
2026-05-05 15:26 44.84715 25.36203 23758 ft 459 kts 99°
2026-05-05 15:26 44.84044 25.40613 23519 ft 457 kts 99°
2026-05-05 15:26 44.83375 25.44990 23245 ft 456 kts 100°
2026-05-05 15:26 44.82710 25.49329 22695 ft 451 kts 100°
2026-05-05 15:27 44.82048 25.53632 21768 ft 442 kts 99°
2026-05-05 15:27 44.81408 25.57770 20594 ft 434 kts 99°
2026-05-05 15:27 44.80770 25.61891 19404 ft 426 kts 99°
2026-05-05 15:27 44.80141 25.65944 18258 ft 419 kts 99°
2026-05-05 15:28 44.79524 25.69910 16960 ft 412 kts 99°
2026-05-05 15:28 44.78913 25.73829 15724 ft 405 kts 99°
2026-05-05 15:28 44.78314 25.77662 14535 ft 398 kts 99°
2026-05-05 15:28 44.77722 25.81443 13727 ft 395 kts 99°
2026-05-05 15:29 44.77131 25.85211 13295 ft 389 kts 99°
2026-05-05 15:29 44.76559 25.88836 12330 ft 381 kts 99°
2026-05-05 15:29 44.75989 25.92468 11099 ft 378 kts 99°
2026-05-05 15:29 44.75421 25.96089 9829 ft 377 kts 100°
2026-05-05 15:30 44.74866 25.99623 8862 ft 365 kts 100°
2026-05-05 15:30 44.74333 26.03005 8438 ft 340 kts 100°
2026-05-05 15:30 44.73836 26.06148 8123 ft 317 kts 100°
2026-05-05 15:30 44.73374 26.09071 7863 ft 296 kts 100°
2026-05-05 15:31 44.72939 26.11832 7447 ft 284 kts 100°
2026-05-05 15:31 44.72514 26.14531 6883 ft 279 kts 100°
2026-05-05 15:31 44.72102 26.17147 6335 ft 276 kts 100°
2026-05-05 15:31 44.71693 26.19736 6120 ft 265 kts 100°
2026-05-05 15:32 44.71296 26.22225 5920 ft 257 kts 100°
2026-05-05 15:32 44.70908 26.24660 5635 ft 253 kts 101°
2026-05-05 15:32 44.70526 26.27062 5504 ft 252 kts 101°
2026-05-05 15:32 44.70144 26.29467 5368 ft 252 kts 101°
2026-05-05 15:33 44.69757 26.31883 5251 ft 253 kts 101°
2026-05-05 15:33 44.69369 26.34261 5134 ft 252 kts 103°
2026-05-05 15:33 44.68570 26.36448 4906 ft 255 kts 131°
2026-05-05 15:33 44.67114 26.37844 4553 ft 255 kts 161°
2026-05-05 15:34 44.65384 26.38320 4239 ft 252 kts 174°
2026-05-05 15:34 44.63659 26.38508 3928 ft 249 kts 176°
2026-05-05 15:34 44.61936 26.38654 3609 ft 247 kts 177°
2026-05-05 15:34 44.60225 26.38794 3315 ft 243 kts 177°
2026-05-05 15:35 44.58550 26.38767 3008 ft 240 kts 193°
2026-05-05 15:35 44.57075 26.37716 2675 ft 239 kts 223°
2026-05-05 15:35 44.56161 26.35816 2508 ft 236 kts 252°
2026-05-05 15:35 44.56100 26.33529 2500 ft 239 kts 283°
2026-05-05 15:36 44.56681 26.31364 2492 ft 241 kts 295°
2026-05-05 15:36 44.57413 26.29300 2488 ft 229 kts 294°
2026-05-05 15:36 44.57864 26.27220 2373 ft 217 kts 278°
2026-05-05 15:36 44.57871 26.25159 2077 ft 212 kts 262°
2026-05-05 15:37 44.57651 26.23126 1751 ft 208 kts 261°
2026-05-05 15:37 44.57478 26.21126 1488 ft 206 kts 264°
2026-05-05 15:37 44.57344 26.19194 1274 ft 189 kts 262°
2026-05-05 15:37 44.57204 26.17421 1037 ft 181 kts 263°
2026-05-05 15:38 44.57071 26.15670 809 ft 180 kts 263°
2026-05-05 15:38 44.56940 26.13925 589 ft 179 kts 263°
2026-05-05 15:38 44.56810 26.12263 412 ft 161 kts 264°
2026-05-05 15:38 44.56697 26.10782 325 ft 131 kts 266°
2026-05-05 15:39 44.56634 26.09916 326 ft 60 kts 263°
2026-05-05 15:39 44.56592 26.09345 325 ft 58 kts 264°
2026-05-05 15:39 44.56555 26.08865 325 ft 40 kts 264°
2026-05-05 15:39 44.56596 26.08642 324 ft 21 kts 315°
2026-05-05 15:40 44.56691 26.08583 325 ft 11 kts 354°
2026-05-05 15:40 44.56725 26.08578 324 ft 2 kts 354°
2026-05-05 15:40 44.56744 26.08576 325 ft 3 kts 354°
2026-05-05 15:40 44.56777 26.08571 326 ft 9 kts 354°
2026-05-05 15:41 44.56852 26.08561 324 ft 11 kts 354°
2026-05-05 15:41 44.56933 26.08549 326 ft 12 kts 354°
2026-05-05 15:41 44.57017 26.08536 326 ft 12 kts 354°
2026-05-05 15:41 44.57104 26.08524 325 ft 13 kts 354°
2026-05-05 15:42 44.57121 26.08521 326 ft 0 kts 354°
2026-05-05 15:47 44.57155 26.08516 324 ft 9 kts 354°
2026-05-05 15:47 44.57210 26.08505 326 ft 14 kts 338°
2026-05-05 15:47 44.57221 26.08323 323 ft 16 kts 262°
2026-05-05 15:47 44.57204 26.08174 324 ft 16 kts 239°
2026-05-05 15:48 44.57142 26.08167 326 ft 0 kts 175°
2026-05-05 15:48 44.57141 26.08167 326 ft 0 kts 174°